الصفحة الرئيسية
METAR-TAF:

METAR-TAF

مطار :

Imperial Municipal Airport

إمبريال, نبراسكا, الولايات المتحدة

دائرة عرض: 40-31N, خط طول: 101-37W, ارتفاع: 997 متر

مراقبة الطقس الحالي

تاريخ ووقت الإصدار 33 دقيقة قبل الساعة 22:53UTC
ريح 10 عقدة من الغرب/الشمال الغربي
درجة الحرارة 9°درجة مئوية
الرطوبة 29%
ضغط 1025 hPa
الرؤية: 16.1 كم
سماء صافية

METAR: KIML 152253Z AUTO 29010KT 10SM CLR 09/M08 A3028 RMK AO2 SLP279 T00941083

زمن: 17:26 (23:26 UTC)


TAF: مفقودة

أرصاد الطقس والتوقعات من أكثر من 4000 مطار (تقارير الطقس للمطار METAR والتنبؤ بالطقس بالمطارTAF).

المحطات المتاحة هي النقط الصفراء والحمراء على الخريطة.

حرك المؤشر فوق النقطة لمعرفة اسم المحطة.

ثم انقر لمعرفة أرصاد وتوقعات الطقس.

لتغيير الخارطة: اضغط على الأزرار الخضراء مع رمز الصليب الأسود للتكبير. على الزر الأخضر مع شرطة للتصغير، أو على الأسهم الخضراء للخرائط المجاورة.


METAR-TAF: